ARG1331 SACO-SABE

Flight info

Callsign ARG1331
Flight time N/A
Altitude 31000
Route UTRAX1C UTRAX UW24 SNT SNT9R
Aircraft B738/M-SDE2E3FGHIRWXY/LB1

Departure

Time 2026-04-28 22:07
Airport Ingeniero Aeronáutico Ambrosio L.V. Taravella International Airport (SACO)

Arrival

Time N/A
Airport Aeroparque Jorge Newbery (SABE)
Time Latitude Longitude Altitude Speed Heading
2026-04-28 21:53 -31.31684 -64.21152 1560 ft 0 kts 303°
2026-04-28 22:00 -31.31689 -64.21145 1561 ft 2 kts 296°
2026-04-28 22:00 -31.31694 -64.21130 1561 ft 2 kts 286°
2026-04-28 22:00 -31.31696 -64.21115 1562 ft 2 kts 247°
2026-04-28 22:01 -31.31684 -64.21103 1562 ft 2 kts 189°
2026-04-28 22:01 -31.31678 -64.21102 1561 ft 0 kts 182°
2026-04-28 22:01 -31.31679 -64.21102 1561 ft 0 kts 182°
2026-04-28 22:03 -31.31692 -64.21102 1560 ft 3 kts 181°
2026-04-28 22:04 -31.31723 -64.21093 1560 ft 7 kts 152°
2026-04-28 22:04 -31.31774 -64.21043 1560 ft 11 kts 146°
2026-04-28 22:04 -31.31856 -64.21028 1560 ft 13 kts 179°
2026-04-28 22:04 -31.31959 -64.21027 1560 ft 16 kts 179°
2026-04-28 22:05 -31.32032 -64.21026 1560 ft 16 kts 179°
2026-04-28 22:05 -31.32137 -64.21024 1560 ft 15 kts 179°
2026-04-28 22:05 -31.32240 -64.21022 1560 ft 14 kts 179°
2026-04-28 22:05 -31.32337 -64.21020 1560 ft 14 kts 179°
2026-04-28 22:06 -31.32418 -64.20985 1560 ft 13 kts 133°
2026-04-28 22:06 -31.32437 -64.20888 1560 ft 12 kts 87°
2026-04-28 22:06 -31.32431 -64.20821 1559 ft 6 kts 56°
2026-04-28 22:06 -31.32366 -64.20815 1559 ft 13 kts 359°
2026-04-28 22:07 -31.32200 -64.20817 1560 ft 60 kts 359°
2026-04-28 22:07 -31.31563 -64.20827 1562 ft 123 kts 359°
2026-04-28 22:07 -31.30542 -64.20832 1742 ft 157 kts
2026-04-28 22:07 -31.29407 -64.20838 2381 ft 167 kts
2026-04-28 22:08 -31.28282 -64.20654 3300 ft 158 kts 12°
2026-04-28 22:08 -31.27207 -64.20211 3864 ft 174 kts 23°
2026-04-28 22:08 -31.26138 -64.19433 4334 ft 193 kts 41°
2026-04-28 22:08 -31.25474 -64.17949 4529 ft 225 kts 81°
2026-04-28 22:09 -31.25761 -64.16060 4759 ft 252 kts 116°
2026-04-28 22:09 -31.26824 -64.14369 5202 ft 268 kts 129°
2026-04-28 22:09 -31.28139 -64.12721 5716 ft 283 kts 133°
2026-04-28 22:09 -31.29504 -64.11087 6538 ft 283 kts 133°
2026-04-28 22:10 -31.30888 -64.09431 7328 ft 285 kts 133°
2026-04-28 22:10 -31.32276 -64.07752 8131 ft 287 kts 134°
2026-04-28 22:10 -31.33645 -64.06079 8957 ft 288 kts 134°
2026-04-28 22:10 -31.35029 -64.04371 9777 ft 290 kts 134°
2026-04-28 22:11 -31.36424 -64.02642 10430 ft 297 kts 134°
2026-04-28 22:11 -31.37894 -64.00811 10623 ft 320 kts 134°
2026-04-28 22:11 -31.39467 -63.98847 10814 ft 341 kts 134°
2026-04-28 22:11 -31.41104 -63.96794 11208 ft 353 kts 134°
2026-04-28 22:12 -31.42789 -63.94674 11928 ft 353 kts 135°
2026-04-28 22:12 -31.44465 -63.92561 12690 ft 355 kts 134°
2026-04-28 22:12 -31.46163 -63.90421 13298 ft 360 kts 135°
2026-04-28 22:12 -31.47852 -63.88291 13938 ft 362 kts 135°
2026-04-28 22:13 -31.49575 -63.86116 14526 ft 365 kts 135°
2026-04-28 22:13 -31.51287 -63.83891 15137 ft 368 kts 133°
2026-04-28 22:13 -31.52950 -63.81588 15747 ft 370 kts 132°
2026-04-28 22:13 -31.54597 -63.79254 16360 ft 372 kts 132°
2026-04-28 22:14 -31.56232 -63.76928 16950 ft 375 kts 132°
2026-04-28 22:14 -31.57900 -63.74559 17540 ft 377 kts 132°
2026-04-28 22:14 -31.59584 -63.72175 18121 ft 379 kts 132°
2026-04-28 22:14 -31.61279 -63.69782 18646 ft 382 kts 132°
2026-04-28 22:15 -31.62969 -63.67402 19141 ft 384 kts 132°
2026-04-28 22:15 -31.64685 -63.64987 19651 ft 386 kts 132°
2026-04-28 22:15 -31.66415 -63.62554 20165 ft 388 kts 132°
2026-04-28 22:15 -31.68129 -63.60143 20670 ft 390 kts 132°
2026-04-28 22:16 -31.69874 -63.57687 21161 ft 392 kts 132°
2026-04-28 22:16 -31.71635 -63.55209 21618 ft 395 kts 132°
2026-04-28 22:16 -31.73403 -63.52717 22069 ft 398 kts 132°
2026-04-28 22:16 -31.75160 -63.50242 22523 ft 400 kts 132°
2026-04-28 22:17 -31.76953 -63.47712 22977 ft 402 kts 132°
2026-04-28 22:17 -31.78753 -63.45170 23422 ft 405 kts 132°
2026-04-28 22:17 -31.80565 -63.42611 23808 ft 407 kts 132°
2026-04-28 22:17 -31.82384 -63.40040 24181 ft 409 kts 132°
2026-04-28 22:18 -31.84186 -63.37491 24549 ft 411 kts 132°
2026-04-28 22:18 -31.86022 -63.34892 24925 ft 412 kts 132°
2026-04-28 22:18 -31.87856 -63.32295 25290 ft 414 kts 132°
2026-04-28 22:18 -31.89709 -63.29668 25658 ft 415 kts 132°
2026-04-28 22:19 -31.91533 -63.27080 26002 ft 417 kts 132°
2026-04-28 22:19 -31.93395 -63.24438 26338 ft 419 kts 132°
2026-04-28 22:19 -31.95263 -63.21785 26649 ft 421 kts 133°
2026-04-28 22:19 -31.97142 -63.19115 26962 ft 423 kts 133°
2026-04-28 22:20 -31.99004 -63.16466 27315 ft 424 kts 133°
2026-04-28 22:20 -32.00881 -63.13793 27791 ft 422 kts 133°
2026-04-28 22:20 -32.02745 -63.11136 28323 ft 418 kts 133°
2026-04-28 22:20 -32.04592 -63.08502 28800 ft 416 kts 133°
2026-04-28 22:21 -32.06437 -63.05868 29240 ft 415 kts 133°
2026-04-28 22:21 -32.08282 -63.03236 29683 ft 414 kts 133°
2026-04-28 22:21 -32.10092 -63.00650 30137 ft 412 kts 133°
2026-04-28 22:21 -32.11917 -62.98041 30523 ft 410 kts 134°
2026-04-28 22:22 -32.13730 -62.95448 30913 ft 408 kts 134°
2026-04-28 22:22 -32.17391 -62.90213 30974 ft 418 kts 134°
2026-04-28 22:23 -32.21130 -62.84857 30982 ft 427 kts 134°
2026-04-28 22:23 -32.24926 -62.79409 30979 ft 436 kts 134°
2026-04-28 22:24 -32.28804 -62.73829 30972 ft 440 kts 134°
2026-04-28 22:24 -32.32696 -62.68219 30966 ft 440 kts 133°
2026-04-28 22:25 -32.36571 -62.62628 30966 ft 440 kts 133°
2026-04-28 22:25 -32.40455 -62.57016 30965 ft 440 kts 133°
2026-04-28 22:26 -32.44343 -62.51392 30968 ft 440 kts 133°